Location: Monclar
(43.5281°N, 0.3370°E)
Time: 20:25:45
(UTC+00:00)

Daily predictions for brighter satellites

Satellite Brightness Start Highest point End
(mag) Time Altitude Azimuth Time Altitude Azimuth Time Altitude Azimuth
Cosmos 1356 Rocket 3.6 17:21:04 10° S 17:25:19 86° W 17:29:38 10° N
CORIOLIS 4.1 17:20:39 10° SSE 17:25:58 75° ENE 17:31:19 10° N
ADEOS Rocket 3.6 17:20:38 10° N 17:26:55 73° WNW 17:33:54 10° SSW
CZ-4 R/B 2.9 17:25:13 10° ESE 17:27:36 16° ENE 17:29:58 10° NNE
Cosmos 1825 Rocket 4.1 17:24:41 10° N 17:28:52 38° ENE 17:33:00 10° SE
BREEZE-M DEB (TANK) 4.3 17:26:38 10° W 17:29:54 47° N 17:40:12 10° ENE
ERS-2 2.1 17:26:18 10° NNE 17:29:57 73° ESE 17:33:34 10° S
YAOGAN 1 4.0 17:28:37 10° ESE 17:31:26 17° ENE 17:34:15 10° NNE
USA 281 3.5 17:25:34 10° SSE 17:32:08 78° WSW 17:38:44 10° NNW
Lacrosse 5 3.5 17:28:34 10° W 17:32:51 27° NNW 17:37:09 10° NE
Cosmos 2219 4.3 17:30:48 10° N 17:35:24 24° NE 17:39:58 10° ESE
AQUARIUS 4.3 17:31:31 10° SSE 17:36:01 83° WSW 17:40:32 10° NNW
Cosmos 1655 Rocket 4.4 17:33:42 10° NNW 17:40:06 74° W 17:46:28 10° S
Cosmos 1400 Rocket 4.1 17:38:10 10° SE 17:41:16 21° E 17:44:22 10° NE
CZ-4B R/B 1.2 17:38:02 10° NNE 17:41:17 89° ENE 17:44:27 10° SSW
SAR-Lupe-4 3.7 17:38:16 10° NNE 17:41:48 51° E 17:45:17 10° S
Cosmos 44 3.8 17:38:36 10° S 17:42:34 34° ESE 17:46:47 10° NE
Cosmos 1726 Rocket 4.0 17:40:11 10° SSE 17:44:12 39° E 17:48:17 10° NNE
Okean-O 3.5 17:40:46 10° SE 17:44:35 29° ENE 17:48:25 10° N
Cosmos 1758 Rocket 3.5 17:41:47 10° N 17:46:13 78° E 17:50:34 10° SSE
Meteor 2-14 Rocket 4.4 17:43:07 10° N 17:49:17 72° E 17:55:22 10° SSE
Meteor 2-21 4.4 17:46:54 10° N 17:53:06 81° E 17:59:12 10° S
CZ-4B R/B 4.4 17:50:19 10° S 17:55:43 48° W 18:01:06 10° NNW
Aureole 3 3.7 17:54:09 10° SSE 17:57:04 27° E 17:59:42 10° NNE
FALCON 9 DEB 3.9 17:55:19 10° SSW 17:58:14 31° SE 17:59:55 19° E
Cosmos 1331 Rocket 3.9 17:53:16 10° S 17:58:23 72° ESE 18:03:33 10° NNE
Cosmos 1606 Rocket 3.5 17:54:12 10° S 17:58:32 74° E 18:02:55 10° NNE
SAR-Lupe-1 4.0 17:55:54 10° NNE 17:59:30 81° ESE 18:03:05 10° S
Cosmos 2228 2.9 17:58:36 10° S 18:02:50 87° E 18:07:07 10° N
GENESIS II 4.2 17:58:59 10° SSW 18:03:00 71° ESE 18:07:02 10° NE
SKYMED 2 3.5 17:59:00 10° NNE 18:03:21 69° ESE 18:07:39 10° S
ATLAS 5 CENTAUR R/B 4.2 18:01:18 10° WNW 18:03:40 14° NNW 18:06:11 10° N
SL-4 R/B 3.3 18:02:31 10° WNW 18:05:30 25° N 18:08:01 13° NE
FALCON 9 DEB 3.5 18:02:47 10° SSW 18:05:48 39° SE 18:07:15 24° E
CZ-2C R/B 3.6 18:01:49 10° SE 18:07:16 43° ENE 18:12:38 10° N
Cosmos 292 Rocket 3.7 18:02:51 10° S 18:07:35 64° ESE 18:12:22 10° NNE
ARGOS 4.1 18:09:08 16° ESE 18:12:17 26° ENE 18:16:41 10° N
Cosmos 1346 Rocket 4.3 18:10:33 10° NNE 18:12:50 19° NE 18:12:50 19° NE
FALCON 9 DEB 3.4 18:10:44 10° SSW 18:13:50 45° SE 18:15:00 30° E
Cosmos 2227 Rocket 2.9 18:08:48 10° N 18:13:54 33° NE 18:17:08 19° ESE
Meteor 2-10 Rocket 4.3 18:10:01 10° SSE 18:14:32 28° E 18:18:56 10° NNE
SeaSat 1 3.3 18:14:54 21° E 18:17:04 29° NE 18:21:18 10° N
Cosmos 1892 3.5 18:14:56 10° NNE 18:18:23 30° ENE 18:19:18 27° ESE
CZ-2D R/B 3.1 18:15:06 10° SSE 18:18:55 78° ENE 18:22:44 10° N
Cosmos 1656 4.0 18:16:07 10° S 18:21:15 41° ESE 18:26:21 11° NE
USA 215 4.2 18:17:29 18° ENE 18:21:27 33° NNE 18:27:09 10° NW
Meteor 2-16 Rocket 4.4 18:17:07 10° N 18:23:15 88° E 18:29:20 10° S
Cosmos 1110 Rocket 4.5 18:18:54 10° SSW 18:24:07 63° WNW 18:29:19 10° NNE
ATLAS 2AS CENTAUR R/B 4.4 18:19:06 10° NNW 18:24:25 19° NNE 18:27:53 14° NE
CSL-04 Rocket 4.0 18:19:48 10° SE 18:25:01 44° ENE 18:30:15 10° N
Cosmos 968 Rocket 4.1 18:20:17 10° N 18:25:03 34° ENE 18:26:57 26° E
Cosmos 2058 Rocket 3.0 18:20:42 10° S 18:25:07 70° E 18:29:38 10° NNE
CZ-4 R/B 4.5 18:21:04 10° SSE 18:25:13 84° WSW 18:29:25 10° NNW
Cosmos 1302 Rocket 3.9 18:21:42 10° S 18:26:54 66° ESE 18:32:09 10° NNE
Cosmos 1953 Rocket 3.8 18:23:38 10° NNW 18:28:02 74° W 18:32:27 10° S
FALCON 9 DEB 2.9 18:25:20 10° SW 18:28:31 67° SE 18:29:11 49° E
Cosmos 1300 3.3 18:25:49 10° SSW 18:29:33 59° W 18:33:20 10° N
Cosmos 1486 Rocket 4.4 18:26:32 10° N 18:31:36 41° ENE 18:33:47 28° ESE
USA 307 4.4 18:28:18 10° NW 18:31:44 23° NNE 18:32:53 21° NE
Cosmos 1697 Rocket 3.5 18:28:29 10° SSE 18:32:53 27° ESE 18:32:53 27° ESE
USA 308 4.4 18:33:04 10° NW 18:36:32 23° NNE 18:37:27 22° NNE
Helios 1A Rocket 3.2 18:32:34 10° S 18:36:41 69° WSW 18:40:48 10° NNW
GEOS 3 Rocket 3.6 18:36:45 23° SE 18:40:08 71° NE 18:45:31 10° NNW
S3M 4.0 18:36:23 10° SSE 18:42:17 53° E 18:48:14 10° NNE
Timation 2 Rocket 4.2 18:37:30 10° NNW 18:44:08 82° WSW 18:50:57 10° SSE
DMSP B5D1-3 4.4 18:39:00 10° NNE 18:44:08 65° ESE 18:49:15 10° S
Cosmos 1939 Rocket 4.4 18:40:47 10° SSW 18:44:30 37° W 18:48:12 10° NNW
CRYOSAT 2 4.4 18:40:50 10° NNE 18:45:37 54° E 18:50:22 10° S
Milstar 3 4.2 18:43:54 10° SW 18:49:03 23° S 18:51:54 18° SE
COSMO-SKYMED 1 4.1 18:47:18 10° N 18:51:18 36° WNW 18:55:16 10° SW
Cosmos 1408 4.5 18:49:24 10° N 18:50:33 19° N 18:50:33 19° N
Cosmos 2297 Rocket 2.1 18:48:51 10° NNW 18:54:34 80° ENE 18:57:46 27° SSE
Cosmos 1417 Rocket 4.4 18:48:22 10° S 18:54:35 83° E 19:00:56 10° N
In-Cosmos 22 Rocket 4.2 18:52:50 10° NNW 18:58:11 77° W 19:03:36 10° S
H-2A R/B 2.0 18:53:11 10° SSE 18:58:34 82° ENE 19:04:02 10° NNW
Cosmos 2058 3.3 18:54:49 10° N 18:57:58 48° NNE 18:57:58 48° NNE
MOS 1 Rocket 3.2 18:55:05 10° NNE 18:59:43 83° ESE 19:04:37 10° S
CSL-04 Debris 4.1 18:56:11 10° SSE 19:01:36 88° WSW 19:07:06 10° NNW
CZ-4 R/B 2.5 18:58:34 10° S 19:02:18 42° W 19:06:01 10° NNW
Cosmos 1340 3.4 18:58:58 10° NNW 19:02:39 52° W 19:05:57 12° S
Aureole 3 Rocket 4.1 19:00:43 10° SSW 19:04:11 43° WNW 19:08:47 10° N
YAOGAN 1 3.5 19:02:58 10° S 19:07:09 49° W 19:11:22 10° NNW
Cosmos 1992 Rocket 4.0 19:04:35 10° S 19:09:11 59° SE 19:09:11 59° SE
SJ-11-01 4.4 19:09:49 20° S 19:13:04 70° WSW 19:17:45 10° NNW
Cosmos 1553 Rocket 4.4 19:07:17 10° SSW 19:13:36 64° W 19:19:52 10° N
Ariane Rocket 4.2 19:18:51 29° NNE 19:18:51 29° NNE 19:21:33 10° N
Lacrosse 5 3.8 19:13:58 10° NW 19:17:20 17° N 19:18:09 17° NNE
Cosmos 2219 3.6 19:14:19 10° NNW 19:20:01 62° WSW 19:23:22 25° S
BREEZE-M R/B 4.3 19:17:19 10° WNW 19:21:54 54° NNE 19:23:14 47° NE
USA 305 4.5 19:20:22 10° NW 19:22:59 28° NNW 19:22:59 28° NNW
Atlas Centaur 2 4.0 19:23:52 10° SW 19:30:46 28° S 19:31:15 28° SSE
Cosmos 2082 3.8 19:25:13 10° NNW 19:30:18 65° NNE 19:30:18 65° NNE
CZ-4C R/B 4.2 19:32:20 10° NNW 19:37:16 22° NNE 19:37:16 22° NNE
ARGOS 4.0 19:50:40 36° SW 19:52:15 47° W 19:57:29 10° NNW
SeaSat 1 3.5 19:54:42 42° WSW 19:54:42 42° WSW 19:59:07 10° NW
NOSS 3-4 (A) 4.5 19:48:27 10° NNW 19:53:45 41° NNE 19:53:45 41° NNE
NOSS 3-4 (C) 4.5 19:48:34 10° NNW 19:53:51 41° NNE 19:53:51 41° NNE
Cosmos 2227 Rocket 3.3 19:52:47 10° NW 19:58:00 39° WSW 19:59:01 36° SW
NOSS 3-3 (A) 4.4 19:57:12 10° SW 20:01:35 52° WSW 20:01:35 52° WSW
NOSS 3-3 (C) 4.4 19:57:17 10° SW 20:01:43 53° WSW 20:01:43 53° WSW
USA 215 3.5 20:04:50 62° NNW 20:04:50 62° NNW 20:10:22 10° NW
Cosmos 2263 Rocket 4.2 20:04:11 10° NNW 20:05:55 19° N 20:05:55 19° N
Cosmos 1709 Rocket 4.5 20:04:27 10° NNW 20:10:33 57° W 20:10:33 57° W
Cosmos 1697 Rocket 4.1 20:11:27 10° SW 20:14:43 32° WSW 20:14:43 32° WSW
ATLAS 2AS CENTAUR R/B 3.7 20:10:10 10° NNW 20:15:19 38° N 20:15:19 38° N
